Theta_e
323 321 325 321 309 307 301 300 303 302 303 307 307 307 307 309 305 304 329 341 343 343 346 346 348 350 350 349 349 349 347 344 343 341 340 339 338 338 339 339 341 341 343 343 342 344 342 341 339
320 318 321 316 305 299 300 302 301 304 308 310 310 310 309 308 319 326 332 340 344 344 346 346 346 350 351 349 349 349 347 344 342 340 338 337 337 337 337 337 338 341 340 341 343 344 342 339 337
316 314 315 311 305 299 299 302 304 307 310 308 309 313 312 312 321 330 334 343 344 344 346 346 346 349 351 350 348 348 346 344 341 339 337 336 335 335 336 336 337 338 339 343 344 342 339 337 337
318 315 310 304 299 302 302 304 305 308 307 307 310 308 316 321 324 328 339 343 343 344 346 345 347 350 350 349 347 347 346 343 340 338 336 334 333 333 333 335 335 336 340 341 341 340 337 335 334
315 313 305 302 300 301 303 304 307 306 306 307 310 307 312 320 324 330 341 342 343 344 346 347 346 348 349 349 346 347 346 343 340 337 335 332 331 331 331 333 334 335 337 337 336 333 331 330 329
310 310 301 299 300 301 303 305 308 307 305 307 307 308 312 322 323 333 342 342 345 344 346 346 340 343 345 346 346 345 345 343 340 337 334 331 329 328 328 330 332 333 333 333 330 327 325 325 325
308 306 301 300 299 300 303 306 306 307 305 306 310 306 312 318 326 334 342 344 344 344 345 345 344 343 337 341 342 342 343 342 340 338 335 332 331 331 329 329 328 329 329 328 326 324 322 322 323
308 307 299 300 298 299 304 305 305 307 305 308 313 306 307 319 328 336 341 342 343 344 344 344 344 345 345 345 335 337 339 339 338 335 332 330 330 330 329 327 326 325 325 324 322 320 320 321 321
304 302 298 299 298 301 302 303 302 305 305 307 310 307 311 322 329 333 336 337 339 341 343 344 344 345 345 345 339 334 334 334 332 330 326 325 330 329 328 326 326 324 323 322 320 320 319 319 318
304 300 299 301 303 302 302 303 304 303 303 305 306 308 308 321 327 330 332 331 334 336 341 343 344 344 344 343 344 344 343 341 336 332 329 330 331 331 328 323 324 324 322 320 318 316 315 317 317
300 299 299 300 301 302 302 301 304 303 302 306 307 309 308 320 325 328 331 332 333 336 338 338 339 343 343 341 344 343 343 342 338 332 331 329 328 329 325 324 323 322 318 318 317 316 315 315 315
299 299 300 300 302 301 301 302 301 303 306 307 309 308 309 316 322 326 329 331 333 334 334 333 333 335 337 336 342 344 341 339 337 331 330 328 326 325 322 321 322 321 321 319 318 314 313 310 310
300 300 300 301 300 301 301 301 302 302 306 305 304 304 307 312 319 325 329 332 333 329 330 327 328 331 333 329 337 342 340 338 337 331 329 328 326 323 321 320 319 320 320 319 315 312 306 304 306
301 300 301 301 301 301 300 301 300 304 306 304 303 305 307 309 316 322 325 327 329 329 327 325 324 327 329 332 336 337 337 339 337 334 330 327 326 322 321 320 319 316 317 316 312 308 302 297 299
300 298 301 302 300 301 301 299 299 305 302 303 304 305 306 307 311 318 322 325 327 327 326 322 322 324 325 327 332 334 332 329 334 336 333 328 324 322 319 318 318 315 315 312 308 301 297 295 295
298 299 295 299 299 299 301 296 302 303 302 303 305 306 305 306 307 311 320 324 326 325 322 320 316 320 322 325 327 327 327 325 326 332 334 329 326 323 321 317 317 309 309 308 303 299 296 294 293
297 293 294 296 300 298 299 298 302 301 301 303 305 305 305 305 306 308 312 318 322 322 319 317 317 318 320 321 321 320 317 320 319 321 329 328 326 319 317 317 311 306 308 305 301 298 294 294 293
293 293 293 294 297 296 297 297 302 303 301 303 306 306 306 305 306 308 308 311 316 318 317 316 315 316 317 317 315 313 313 310 312 313 317 321 320 317 314 310 306 307 304 301 298 294 293 294 292
294 294 293 296 297 296 297 297 300 303 303 302 304 305 306 306 309 309 308 308 310 312 312 312 312 314 314 313 311 310 310 307 304 307 310 314 315 313 310 304 303 302 301 301 297 295 293 293 293
294 293 293 296 296 295 296 296 300 301 302 304 305 306 307 308 308 307 306 306 306 308 310 310 311 312 312 313 314 313 310 305 304 300 304 307 309 310 308 304 301 303 300 297 295 293 292 293 295
293 293 293 292 294 295 294 294 298 301 301 303 305 305 307 307 308 307 304 304 306 306 308 309 310 311 312 313 312 306 302 299 296 297 298 299 302 302 302 302 300 299 299 297 294 294 295 293 295
291 295 294 292 292 290 294 287 296 299 300 302 303 305 306 306 306 305 304 304 304 306 308 308 309 310 311 312 308 307 307 302 301 301 299 295 297 300 298 297 298 300 298 297 295 296 298 296 293
293 294 293 293 292 291 292 288 294 296 297 300 304 307 308 307 306 305 304 304 304 305 307 308 309 309 310 309 310 309 311 310 304 301 296 293 290 292 293 295 296 297 298 298 297 296 297 298 297
294 294 292 292 292 286 292 290 292 296 298 302 305 306 304 303 303 302 301 302 303 304 306 306 307 307 308 307 308 309 310 303 299 299 294 293 289 289 288 288 291 292 293 294 293 295 296 296 295
294 293 286 286 284 285 289 289 293 299 300 301 303 304 302 303 302 303 299 299 300 302 304 304 305 305 306 306 306 307 306 301 302 300 295 290 288 287 286 287 287 290 290 291 292 294 294 293 292
291 293 288 284 283 287 286 285 294 300 303 304 301 301 302 303 303 301 299 299 300 301 302 303 303 304 304 304 304 305 305 304 303 300 297 296 291 289 287 286 286 286 287 288 290 292 291 291 289
290 288 295 289 281 285 290 295 298 299 299 299 300 302 303 302 300 299 298 298 299 300 301 302 303 304 303 303 303 301 299 297 296 295 295 293 292 287 285 285 285 285 286 287 290 289 287 288 287
294 297 288 290 284 283 288 289 292 295 298 299 300 301 301 300 298 297 297 297 298 300 301 302 303 303 302 302 301 298 296 294 294 291 289 286 286 285 284 283 284 284 284 286 287 287 286 286 285
291 290 291 292 290 287 285 291 299 300 300 299 301 300 300 299 298 297 296 297 298 299 301 301 302 302 300 300 298 296 295 292 291 289 286 285 285 283 283 282 283 283 282 284 285 285 285 284 283
296 294 293 289 284 287 287 290 297 299 301 301 301 300 300 297 297 297 296 296 297 298 299 299 300 299 299 299 297 296 294 290 288 287 286 285 284 283 283 282 282 282 281 283 283 283 283 283 282
Wind_Speed
2 3 0 2 4 2 1 3 1 5 5 2 3 4 3 4 2 3 5 9 9 12 11 13 10 12 13 13 12 12 13 14 14 15 15 15 15 15 15 15 14 13 15 16 15 18 20 20 21
2 1 1 1 3 3 2 4 7 5 1 6 5 3 4 2 1 6 10 8 12 12 11 12 10 12 13 13 12 11 13 14 15 14 14 15 15 15 16 16 14 14 15 13 13 19 21 20 21
1 2 3 1 2 1 1 5 5 5 7 3 3 2 0 3 4 11 4 12 14 13 11 11 11 13 13 12 13 12 13 14 14 14 15 15 16 16 16 15 14 16 14 16 20 22 20 20 19
2 3 3 5 2 1 1 6 6 11 5 4 2 3 3 1 8 3 8 13 14 13 12 12 11 13 12 12 13 13 14 14 14 14 15 15 16 16 16 16 15 16 15 18 20 20 19 19 18
0 3 3 3 2 1 3 2 9 12 3 4 4 3 2 4 3 5 10 12 14 13 12 13 11 12 12 12 13 13 14 14 14 14 15 15 16 16 16 16 16 16 17 19 20 19 19 19 19
2 3 4 8 3 2 3 5 9 10 3 4 4 3 4 4 7 8 11 14 14 13 12 12 10 11 11 11 13 13 14 15 15 15 15 15 16 16 16 16 17 17 18 18 19 20 20 20 20
3 3 5 2 3 3 5 8 9 12 5 6 1 4 3 9 8 8 11 12 13 13 12 12 13 12 10 10 11 13 14 14 14 15 15 14 14 14 15 15 17 18 18 19 19 20 20 21 21
1 1 4 4 6 4 7 10 2 10 8 2 2 5 3 11 10 10 11 12 12 12 13 13 13 13 12 12 10 12 12 13 13 14 14 12 12 12 13 13 15 18 19 20 20 20 21 21 21
1 4 7 5 7 3 8 9 3 1 4 4 6 3 3 8 11 12 12 11 11 10 13 12 12 12 12 12 11 11 12 12 11 10 12 13 10 12 11 12 16 19 19 20 20 21 22 22 20
3 4 6 1 4 3 7 8 8 6 9 7 6 8 4 10 13 16 16 15 14 15 14 13 13 13 12 9 13 13 13 11 9 8 8 5 10 8 11 11 15 17 18 20 21 19 15 10 9
3 4 3 4 3 2 4 7 6 9 9 11 14 12 12 15 15 17 18 17 17 15 12 11 10 11 12 9 7 5 7 7 8 11 7 7 7 9 7 8 8 10 11 9 11 10 9 11 8
4 2 3 2 3 4 4 4 6 13 12 2 9 3 15 17 18 19 19 18 17 15 14 11 9 9 8 4 6 9 7 6 7 7 9 7 5 6 7 5 8 8 6 9 9 8 12 13 13
3 3 3 1 2 4 2 7 7 13 15 7 2 7 13 16 19 16 16 15 15 15 14 13 11 10 9 7 4 6 7 6 10 8 9 7 7 6 6 7 5 6 8 8 8 10 11 12 12
2 2 2 3 3 3 5 4 3 7 7 12 10 13 13 16 19 16 15 17 18 16 16 13 12 10 9 8 8 5 3 7 8 10 9 9 7 7 6 6 7 6 7 8 9 9 11 11 9
1 3 4 8 4 4 5 10 16 14 5 9 13 13 13 15 14 20 20 19 18 15 14 14 12 10 9 9 8 6 4 2 6 9 14 12 8 9 8 7 8 6 8 11 11 11 10 11 10
1 2 4 3 5 2 7 13 4 2 10 16 16 14 14 16 18 18 17 18 17 15 15 13 9 11 11 9 7 5 4 3 2 5 10 15 11 11 10 7 9 7 6 8 10 10 10 12 9
1 6 6 5 6 3 10 11 3 1 6 12 12 13 15 16 16 19 18 18 17 17 16 15 14 13 12 9 7 6 5 4 4 2 6 12 14 12 9 7 9 10 6 9 9 8 9 11 11
6 6 5 7 3 4 9 20 15 9 9 14 15 15 15 16 20 18 20 18 17 16 16 15 12 13 12 8 7 4 4 3 3 3 3 10 10 12 9 8 10 11 9 8 7 11 7 10 12
1 4 9 6 2 5 15 20 22 18 15 19 20 22 21 22 17 13 15 17 17 17 17 17 16 15 12 10 9 7 6 4 2 3 6 7 9 12 11 8 10 9 10 9 10 11 14 11 13
7 12 14 12 5 6 15 20 22 20 21 21 22 23 24 22 16 13 14 17 20 20 19 19 18 17 14 10 9 5 6 3 3 3 4 5 8 12 12 13 10 12 10 12 13 14 9 10 11
12 16 12 10 4 8 10 17 15 14 17 23 25 26 25 20 18 14 15 18 17 21 21 20 19 17 15 14 9 6 6 4 2 2 3 3 6 7 11 11 12 12 11 12 14 13 13 11 9
15 12 10 7 4 9 1 11 11 10 15 14 18 21 17 15 14 14 14 16 19 20 18 18 18 18 16 16 13 12 9 6 5 6 4 5 4 6 8 9 12 13 10 12 13 10 9 11 12
3 4 7 3 7 7 11 10 5 3 10 19 23 16 12 10 10 9 12 13 15 14 16 16 17 17 16 16 14 12 11 8 7 6 8 6 4 4 6 9 9 11 8 10 11 11 10 9 9
14 6 4 2 2 12 12 11 7 9 14 17 16 10 5 3 2 3 4 7 9 12 14 15 17 17 16 16 16 16 15 10 8 8 7 6 4 3 4 5 6 6 6 10 9 9 9 8 6
5 8 4 5 6 12 3 10 16 10 9 13 10 4 2 6 7 5 4 6 8 12 15 15 18 18 17 17 16 15 13 13 13 13 9 9 7 4 7 8 8 8 9 8 10 11 9 8 7
13 10 8 7 6 9 4 11 6 13 14 14 12 11 11 10 6 6 5 6 7 10 12 14 16 17 16 17 16 13 14 10 9 12 9 9 9 8 10 9 10 10 10 9 10 9 8 10 9
8 13 8 5 3 5 10 19 12 10 14 9 12 9 8 6 5 5 5 7 7 9 11 13 14 15 15 16 13 12 11 9 8 9 9 6 9 7 8 8 10 9 9 9 12 9 10 10 9
10 11 6 6 6 10 11 11 13 5 13 10 10 7 3 4 2 4 6 7 7 8 9 11 13 15 15 15 12 10 11 9 8 9 8 8 8 10 10 8 7 8 9 10 10 11 12 11 8
9 11 6 3 6 6 12 15 5 14 9 11 9 6 4 2 2 4 4 6 7 8 10 11 12 15 15 14 13 12 12 10 10 9 9 9 9 10 10 9 9 9 10 10 10 12 13 13 12
17 17 20 10 6 6 6 24 8 6 13 13 9 7 4 1 4 6 6 8 9 11 12 13 14 14 14 14 13 13 12 11 11 10 10 11 11 11 12 11 11 9 9 11 13 14 14 14 13
Wind_Direction
259 13 284 239 230 272 137 142 297 181 192 106 130 222 233 8 279 19 128 146 156 151 151 165 153 145 140 133 130 123 107 103 97 93 92 90 88 88 88 81 77 79 84 85 86 94 87 82 78
356 243 199 149 250 262 105 134 207 180 60 134 136 161 197 123 102 124 147 164 163 151 155 158 147 143 139 138 131 123 112 107 101 101 100 95 92 90 88 87 86 86 86 92 105 98 91 86 82
94 331 243 135 252 281 13 182 159 129 132 193 168 273 167 127 137 144 103 152 154 153 157 145 149 147 143 143 138 130 117 112 108 107 102 98 95 93 92 93 92 87 94 88 90 90 90 87 85
262 183 130 249 236 136 307 155 156 151 206 225 260 201 184 8 145 119 149 159 160 155 158 143 149 148 147 143 143 140 126 121 114 110 105 101 99 98 97 97 95 93 87 88 86 86 87 84 80
27 240 195 231 226 222 217 181 181 179 165 182 190 143 161 174 153 155 159 170 165 160 159 159 154 151 151 148 149 146 131 125 120 115 109 106 104 102 100 98 96 94 91 90 91 89 86 83 79
190 274 211 231 212 191 216 173 181 194 176 147 220 189 153 135 183 163 161 172 168 163 163 158 158 153 154 156 152 148 137 130 125 120 114 112 108 106 103 101 100 98 95 93 91 88 85 83 79
244 216 232 210 235 208 186 157 201 195 203 207 294 233 112 182 172 166 168 168 172 167 169 168 169 165 159 159 152 149 141 134 131 124 115 111 109 107 104 102 101 99 97 95 93 90 87 85 81
168 204 181 210 217 230 159 170 216 209 212 88 228 233 180 175 159 166 167 173 177 177 178 175 174 173 170 165 153 148 145 138 134 128 121 111 103 103 101 103 103 103 100 98 95 91 88 84 78
247 213 230 218 185 185 149 188 157 38 214 204 198 259 70 145 155 165 169 179 182 187 185 180 178 178 175 171 159 151 149 139 129 130 133 145 130 125 121 94 108 108 104 101 99 95 91 87 77
215 228 224 206 191 193 169 208 169 198 195 217 222 206 171 174 179 181 186 186 190 186 188 186 185 181 179 170 164 168 162 160 154 148 154 132 134 114 110 96 101 103 104 104 101 96 94 87 85
158 238 173 208 206 211 175 202 185 221 222 222 218 202 183 187 195 198 199 196 193 187 178 189 184 178 175 175 169 171 177 166 165 160 148 136 124 130 123 125 120 118 118 113 108 96 79 82 83
207 194 195 156 183 163 199 140 204 225 231 242 234 188 182 193 200 205 203 199 192 187 185 180 189 181 168 166 180 181 174 165 167 166 152 145 137 143 141 137 140 137 128 124 114 104 99 91 87
225 178 206 189 201 229 162 220 241 245 239 219 221 202 205 207 210 211 210 203 196 194 185 186 187 186 177 183 193 183 184 172 177 167 159 157 153 148 146 140 138 131 137 126 118 114 103 94 93
99 211 263 243 223 228 238 242 202 244 247 226 224 229 222 217 213 206 207 205 202 198 191 183 190 190 182 195 193 165 176 185 178 174 170 162 159 151 149 146 138 144 131 123 118 116 111 99 96
70 269 271 224 205 223 212 239 231 245 203 232 232 237 235 230 221 216 210 208 201 200 191 191 188 189 193 197 197 191 175 169 187 183 176 164 158 162 152 147 149 131 131 124 119 116 114 107 102
253 245 254 140 179 156 215 260 252 193 228 245 244 239 237 234 225 225 221 213 205 198 194 188 186 192 195 197 195 190 189 181 189 186 181 174 162 168 161 155 147 124 144 141 125 133 125 114 112
198 259 230 298 200 146 219 271 239 216 237 260 256 245 240 241 229 226 218 215 206 202 195 192 192 194 192 191 184 188 170 194 184 194 180 173 171 158 155 161 146 135 149 141 140 133 137 125 116
206 224 222 249 148 213 229 259 265 242 254 261 262 252 245 242 234 221 212 210 208 203 199 196 193 194 188 178 175 177 182 179 178 168 169 166 164 156 146 145 148 145 133 133 145 135 138 132 125
135 232 262 248 203 227 244 262 267 271 260 260 260 258 253 247 242 227 214 205 202 203 198 196 192 192 184 184 175 194 196 184 182 180 162 163 162 157 150 145 150 150 144 146 149 139 144 139 130
232 258 259 276 261 226 271 263 270 263 257 252 253 255 252 252 243 223 207 202 204 199 200 197 197 192 193 190 193 189 178 182 169 171 175 159 160 163 161 156 163 161 151 150 155 152 154 149 162
229 235 242 256 315 228 284 269 241 258 258 257 254 254 259 260 260 236 220 212 207 207 199 198 197 192 193 192 176 146 127 103 119 193 192 183 153 166 158 165 165 160 160 166 167 166 170 162 172
241 216 233 250 273 273 297 286 267 263 263 251 256 249 253 252 248 247 224 216 209 209 202 201 195 191 192 186 186 184 178 166 187 175 172 166 167 177 160 168 160 166 156 175 173 172 197 179 158
251 128 180 186 237 303 227 266 218 207 244 253 255 267 263 247 244 244 226 227 217 202 198 197 195 194 191 189 194 189 194 194 161 155 159 157 118 126 167 170 170 164 168 172 173 172 188 194 167
140 102 85 101 227 259 242 224 263 211 224 250 265 274 245 191 273 252 236 217 203 194 194 192 195 195 191 193 194 196 197 174 157 165 168 170 139 139 123 120 145 152 154 167 161 174 189 180 174
190 164 213 228 204 255 77 219 256 280 236 236 260 264 242 302 286 276 223 203 197 193 193 191 196 196 191 196 193 194 190 183 184 181 173 163 164 181 168 157 149 168 161 161 155 171 170 170 159
192 202 207 232 230 282 123 237 248 243 259 254 271 287 286 280 244 238 225 203 196 199 200 199 198 198 193 195 194 194 194 196 195 190 181 185 184 179 168 161 166 162 155 155 157 160 158 155 150
174 213 248 271 82 280 251 259 254 230 245 242 251 273 277 293 278 236 200 195 187 192 195 203 200 203 198 197 189 186 190 180 179 177 185 173 174 162 160 158 161 155 148 160 159 154 148 146 137
213 146 169 213 228 242 245 258 244 217 233 238 227 222 239 260 231 195 186 174 180 190 195 202 201 199 200 197 188 184 182 174 168 170 165 159 148 149 144 138 150 149 147 152 154 146 143 138 132
169 205 217 235 226 248 276 259 177 227 191 186 190 206 207 230 209 183 181 164 174 183 189 193 202 197 196 192 185 181 185 168 166 172 157 154 145 145 144 142 149 175 148 150 152 143 144 141 141
237 218 194 206 187 241 292 268 159 185 183 172 190 222 182 183 214 188 178 177 183 187 189 193 196 198 197 191 186 188 185 168 165 167 165 157 155 153 152 152 161 167 157 154 152 150 155 151 150